Date String (YYYY-MM-DD hh:mm:ss) UTC,Instrument flags,Ambient pressure (hPa),Sample flow (lpm),Bypass flow (lpm),Sample temperature (°C),Ambient temperature (°C),ASC tube jacket temperature (°C),LED temperature (°C),Box temperature (°C),Sample RH (%),Span deviation,Mass concentration (μg/m³),Mass concentration (μg/m³),Mass concentration (μg/m³)
DateTimeUTC,F1_M11,P_M11,Q1_M11,Q2_M11,T1_M11,T2_M11,T3_M11,T4_M11,T5_M11,U1_M11,ZSPAN_M11,X0_M11,X2_M11,X1_M11
2022-06-12 01:00:00,,0820.6,5.01,0.00,28.9,27.8,00.0,37.6,30.9,16.3,0000.0,0012.64,0004.39,0003.17
2022-06-12 01:01:00,,0820.7,5.00,0.00,28.9,27.9,00.0,37.6,30.9,16.5,0000.0,0012.79,0004.36,0003.16
2022-06-12 01:02:00,,0820.7,4.99,0.00,28.9,27.4,00.0,37.6,30.8,17.2,0000.0,0013.14,0004.33,0003.16
2022-06-12 01:03:00,,0820.6,5.00,0.00,28.9,26.9,00.0,37.5,30.7,17.0,0000.0,0013.60,0004.31,0003.14
2022-06-12 01:04:00,,0820.6,5.00,0.00,28.8,26.8,00.0,37.5,30.6,16.8,0000.0,0013.71,0004.29,0003.14
2022-06-12 01:05:00,,0820.6,5.00,0.00,28.8,26.9,00.0,37.5,30.6,16.9,0000.0,0013.83,0004.28,0003.14
2022-06-12 01:06:00,,0820.6,5.00,0.00,28.8,27.1,00.0,37.5,30.6,17.0,0000.0,0013.33,0004.36,0003.16
2022-06-12 01:07:00,,0820.7,5.00,0.00,28.8,27.3,00.0,37.6,30.7,16.8,0000.0,0013.30,0004.39,0003.16
2022-06-12 01:08:00,,0820.7,5.01,0.00,28.8,27.5,00.0,37.6,30.8,16.6,0000.0,0014.08,0004.38,0003.17
2022-06-12 01:09:00,,0820.7,5.00,0.00,28.9,27.8,00.0,37.6,30.9,16.7,0000.0,0014.15,0004.43,0003.18
2022-06-12 01:10:00,,0820.7,5.00,0.00,28.9,27.9,00.0,37.6,30.9,17.3,0000.0,0014.35,0004.45,0003.18
2022-06-12 01:11:00,,0820.7,5.00,0.00,28.9,27.5,00.0,37.6,30.8,18.4,0000.0,0014.86,0004.51,0003.19
2022-06-12 01:12:00,,0820.7,5.00,0.00,28.8,26.9,00.0,37.5,30.6,18.0,0000.0,0015.98,0004.61,0003.19
2022-06-12 01:13:00,,0820.7,5.01,0.00,28.8,26.8,00.0,37.5,30.6,17.3,0000.0,0016.10,0004.70,0003.19
2022-06-12 01:14:00,,0820.7,5.00,0.00,28.7,26.9,00.0,37.5,30.6,16.7,0000.0,0015.58,0004.72,0003.19
2022-06-12 01:15:00,,0820.7,5.00,0.00,28.7,27.1,00.0,37.5,30.6,16.9,0000.0,0015.29,0004.70,0003.19
2022-06-12 01:16:00,,0820.7,4.99,0.00,28.7,27.3,00.0,37.5,30.7,17.0,0000.0,0015.90,0004.71,0003.19
2022-06-12 01:17:00,,0820.7,5.01,0.00,28.8,27.5,00.0,37.6,30.7,17.2,0000.0,0015.70,0004.66,0003.18
2022-06-12 01:18:00,,0820.7,4.99,0.00,28.8,27.7,00.0,37.6,30.8,17.1,0000.0,0015.06,0004.64,0003.18
2022-06-12 01:19:00,,0820.7,5.00,0.00,28.9,27.9,00.0,37.6,30.9,17.5,0000.0,0013.86,0004.65,0003.19
2022-06-12 01:20:00,,0820.7,5.01,0.00,28.9,27.9,00.0,37.6,30.9,17.2,0000.0,0013.75,0004.63,0003.19
2022-06-12 01:21:00,,0820.6,5.01,0.00,28.9,27.2,00.0,37.6,30.7,16.0,0000.0,0013.65,0004.63,0003.19
2022-06-12 01:22:00,,0820.7,5.00,0.00,28.8,26.8,00.0,37.5,30.6,15.9,0000.0,0013.12,0004.55,0003.18
2022-06-12 01:23:00,,0820.7,4.99,0.00,28.8,26.8,00.0,37.5,30.6,16.8,0000.0,0011.66,0004.44,0003.17
2022-06-12 01:24:00,,0820.7,5.00,0.00,28.7,26.9,00.0,37.5,30.5,17.4,0000.0,0010.85,0004.33,0003.16
2022-06-12 01:25:00,,0820.7,5.01,0.00,28.7,27.1,00.0,37.5,30.6,17.1,0000.0,0010.72,0004.33,0003.18
2022-06-12 01:26:00,,0820.7,4.99,0.00,28.7,27.3,00.0,37.6,30.7,17.3,0000.0,0010.66,0004.34,0003.17
2022-06-12 01:27:00,,0820.7,5.00,0.00,28.8,27.5,00.0,37.6,30.8,17.2,0000.0,0009.49,0004.35,0003.17
2022-06-12 01:28:00,,0820.7,5.00,0.00,28.8,27.7,00.0,37.6,30.9,17.3,0000.0,0009.15,0004.34,0003.16
2022-06-12 01:29:00,,0820.8,5.01,0.00,28.9,27.9,00.0,37.6,30.9,17.1,0000.0,0009.18,0004.35,0003.15
2022-06-12 01:30:00,,0820.8,5.00,0.00,28.9,27.6,00.0,37.6,30.9,16.8,0000.0,0009.53,0004.36,0003.15
2022-06-12 01:31:00,,0820.8,4.99,0.00,28.8,26.9,00.0,37.5,30.6,16.8,0000.0,0009.94,0004.35,0003.15
2022-06-12 01:32:00,,0820.8,5.00,0.00,28.8,26.7,00.0,37.5,30.5,16.7,0000.0,0009.99,0004.33,0003.15
2022-06-12 01:33:00,,0820.8,5.00,0.00,28.7,26.8,00.0,37.5,30.5,15.9,0000.0,0010.24,0004.38,0003.15
2022-06-12 01:34:00,,0820.8,5.02,0.00,28.7,26.9,00.0,37.5,30.6,16.6,0000.0,0010.30,0004.41,0003.15
2022-06-12 01:35:00,,0820.8,5.01,0.00,28.7,27.2,00.0,37.5,30.6,16.8,0000.0,0010.45,0004.43,0003.15
2022-06-12 01:36:00,,0820.8,4.99,0.00,28.7,27.4,00.0,37.6,30.7,17.0,0000.0,0010.67,0004.43,0003.16
2022-06-12 01:37:00,,0820.8,5.01,0.00,28.8,27.6,00.0,37.6,30.8,17.1,0000.0,0010.52,0004.37,0003.16
2022-06-12 01:38:00,,0820.7,5.00,0.00,28.8,27.8,00.0,37.6,30.9,17.1,0000.0,0010.52,0004.35,0003.16
2022-06-12 01:39:00,,0820.8,5.00,0.00,28.9,28.0,00.0,37.6,30.9,16.6,0000.0,0010.53,0004.36,0003.17
2022-06-12 01:40:00,,0820.8,4.99,0.00,28.9,27.7,00.0,37.6,30.9,16.6,0000.0,0011.17,0004.32,0003.17
2022-06-12 01:41:00,,0820.8,5.00,0.00,28.9,26.9,00.0,37.6,30.6,16.5,0000.0,0011.09,0004.26,0003.16
2022-06-12 01:42:00,,0820.8,5.00,0.00,28.8,26.7,00.0,37.5,30.6,16.6,0000.0,0010.92,0004.33,0003.17
2022-06-12 01:43:00,,0820.8,4.98,0.00,28.8,26.7,00.0,37.5,30.6,16.9,0000.0,0011.46,0004.34,0003.15
2022-06-12 01:44:00,,0820.8,5.00,0.00,28.7,26.9,00.0,37.5,30.6,17.1,0000.0,0011.61,0004.31,0003.15
2022-06-12 01:45:00,,0820.9,5.00,0.00,28.7,27.1,00.0,37.5,30.6,16.8,0000.0,0011.74,0004.34,0003.16
2022-06-12 01:46:00,,0820.9,5.00,0.00,28.8,27.3,00.0,37.6,30.7,16.8,0000.0,0011.93,0004.36,0003.16
2022-06-12 01:47:00,,0820.8,5.00,0.00,28.8,27.6,00.0,37.6,30.8,16.5,0000.0,0011.61,0004.30,0003.14
2022-06-12 01:48:00,,0820.8,5.01,0.00,28.8,27.8,00.0,37.6,30.9,16.5,0000.0,0011.98,0004.33,0003.13
2022-06-12 01:49:00,,0820.9,5.00,0.00,28.9,28.0,00.0,37.6,30.9,16.5,0000.0,0011.86,0004.31,0003.13
2022-06-12 01:50:00,,0820.8,5.00,0.00,28.9,27.8,00.0,37.6,30.9,16.2,0000.0,0012.36,0004.29,0003.13
2022-06-12 01:51:00,,0820.8,4.99,0.00,28.9,27.1,00.0,37.6,30.7,16.5,0000.0,0012.15,0004.31,0003.12
2022-06-12 01:52:00,,0820.8,5.00,0.00,28.8,26.8,00.0,37.5,30.6,16.6,0000.0,0011.39,0004.41,0003.13
2022-06-12 01:53:00,,0820.8,5.01,0.00,28.8,26.8,00.0,37.5,30.6,16.7,0000.0,0011.32,0004.39,0003.13
2022-06-12 01:54:00,,0820.8,5.01,0.00,28.7,26.9,00.0,37.5,30.5,16.7,0000.0,0010.81,0004.37,0003.13
2022-06-12 01:55:00,,0820.9,5.01,0.00,28.7,27.1,00.0,37.6,30.6,16.8,0000.0,0010.80,0004.37,0003.13
2022-06-12 01:56:00,,0820.8,4.99,0.00,28.7,27.3,00.0,37.6,30.7,16.4,0000.0,0011.05,0004.33,0003.13
2022-06-12 01:57:00,,0820.8,5.01,0.00,28.8,27.5,00.0,37.6,30.8,16.3,0000.0,0010.99,0004.35,0003.13
2022-06-12 01:58:00,,0820.8,5.01,0.00,28.8,27.7,00.0,37.6,30.8,16.3,0000.0,0011.14,0004.41,0003.14
2022-06-12 01:59:00,,0820.8,4.99,0.00,28.9,27.9,00.0,37.6,30.9,16.4,0000.0,0011.06,0004.48,0003.15
